Flag for United Kingdom Weather past 2 weeks in London, England, United Kingdom

Now
61 °F

Sunny.


Feels Like: 61 °F
Forecast: 60 / 77 °F
Wind: 5 mph from North

Location: Northolt

Current Time: Jul 29, 2014 at 7:41:21 AM

Latest Report: Jul 29, 2014 at 6:50 AM


Visibility: 10 mi

Pressure: 30.01 "Hg

Humidity: 83%

Dew point: 55 °F

Location of LondonLocation

Historic Weather in London — Graph

°F

London temperature yesterday

Maximum temperature yesterday: 73 °F (at 2:50 PM)
Minimum temperature yesterday: 57 °F (at 7:50 AM)
Average temperature yesterday: 64 °F

Past Weeks' High & Low Weather Summary

 TemperatureHumidityPressure
High86 °F (Jul 18, 1:50 PM)94% (Jul 16, 4:50 AM)30.21 "Hg (Jul 16, 4:50 AM)
Low54 °F (Jul 14, 5:50 AM)30% (Jul 24, 7:50 PM)29.71 "Hg (Jul 19, 5:50 PM)
Average70 °F66%30.01 "Hg
* Reported Jul 14 5:50 AM — Jul 29 5:50 AM, London, Weather by CustomWeather, © 2014

Note: Actual official high and low records may vary slightly from our data, if they occured in-between our weather recording intervals... More about our weather records

Advertising

London weather history for previous 24 hours

 ConditionsComfort  
Time TempWeatherWind HumidityBarometerVisibility
5:50 AM
Jul 29
59 °FPassing clouds.7 mph88%30.01 "HgN/A
4:50 AM61 °FPassing clouds.7 mph83%30.01 "HgN/A
3:50 AM61 °FPartly cloudy.6 mph88%30.01 "HgN/A
2:50 AM61 °FPassing clouds.6 mph88%30.01 "HgN/A
1:50 AM61 °FPassing clouds.6 mph83%30.01 "HgN/A
12:50 AM63 °FPassing clouds.8 mph73%30.04 "HgN/A
11:50 PM
Jul 28
63 °FPassing clouds.6 mph73%30.01 "HgN/A
10:50 PM64 °FOvercast.3 mph73%30.04 "HgN/A
9:50 PM64 °FOvercast.5 mph78%30.01 "HgN/A
8:50 PM64 °FOvercast.5 mph83%30.01 "HgN/A
7:50 PM66 °FPartly sunny.6 mph78%30.01 "HgN/A
6:50 PM66 °FPartly sunny.6 mph78%30.01 "HgN/A
5:50 PM64 °FBroken clouds.5 mph88%29.98 "HgN/A
4:50 PM63 °FSprinkles. Broken clouds.6 mph88%30.01 "HgN/A
3:50 PM68 °FSprinkles. Broken clouds.15 mph56%29.98 "HgN/A
2:50 PM73 °FScattered clouds.7 mph44%29.98 "HgN/A
1:50 PM68 °FScattered clouds.10 mph56%29.98 "HgN/A
12:50 PM70 °FScattered clouds.8 mph50%29.98 "HgN/A
11:50 AM70 °FScattered clouds.8 mph50%29.98 "HgN/A
10:50 AM68 °FScattered clouds.5 mph64%29.98 "HgN/A
9:50 AM63 °FScattered clouds.2 mph83%29.98 "HgN/A
8:50 AM57 °FThunderstorms. Broken clouds.7 mph94%29.98 "Hg5 mi
8:35 AM57 °FThunderstorms. Broken clouds.8 mph94%29.98 "Hg3 mi
7:50 AM57 °FStrong thunderstorms. Broken clouds.9 mph94%29.98 "Hg1 mi
Weather by CustomWeather, © 2014

See weather overviewHow to use our weather pages